Duncan, OK

5:41 PM CDT on May 26, 2018 (GMT -0500)
Halliburton

Weather History for KDUC - February, 2013

Change the Weather History Date:

Wednesday, February 6, 2013

  Actual Average (KLAW) Record (KLAW)
Temperature  
Mean Temperature 61 °F -  
Max Temperature 71 °F 47 °F 80 °F (1950)
Min Temperature 51 °F 25 °F 4 °F (1996)
Degree Days  
Heating Degree Days 4    
Growing Degree Days 11 (Base 50)    
Moisture  
Dew Point 56 °F    
Average Humidity 96    
Maximum Humidity 100    
Minimum Humidity 57    
Precipitation  
Precipitation 0.00 in - - ()
Sea Level Pressure  
Sea Level Pressure 29.94 in    
Wind  
Wind Speed 7 mph (SE)    
Max Wind Speed 20 mph    
Max Gust Speed 26 mph    
Visibility 6 miles    
Events      
Averages and records for this station are not official NWS values.
T = Trace of Precipitation, MM = Missing Value Source: NWS Daily Summary

Daily Weather History Graph

Daily Weather History Graph

Search for Another Location

Airport or City:

Astronomy

Feb. 06, 2013 Rise Set
Actual Time 7:25 AM CST 6:06 PM CST
Civil Twilight 6:59 AM CST 6:33 PM CST
Nautical Twilight 6:29 AM CST 7:02 PM CST
Astronomical Twilight 6:00 AM CST 7:32 PM CST
Moon 4:05 AM CST (2/6) 2:31 PM CST (2/6)
Length of Visible Light 11h 33m
Length of Day
10h 41m
Waning Crescent, 17% of the Moon is Illuminated
Feb 6
Waning Crescent
Feb 10
New
Feb 17
First Quarter
Feb 25
Full
Mar 4
Last Quarter

Hourly Weather History & Observations

Time (CST) Temp. Dew Point Humidity Pressure Visibility Wind Dir Wind Speed Gust Speed Precip Events Conditions
12:15 AM 53.6 °F 53.6 °F 100% 30.03 in 7.0 mi SE 4.6 mph - N/A   Overcast
12:35 AM 51.8 °F 51.8 °F 100% 30.03 in 5.0 mi Calm Calm - N/A   Overcast
12:55 AM 51.8 °F 51.8 °F 100% 30.03 in 3.0 mi SE 3.5 mph - N/A   Overcast
1:15 AM 51.8 °F 51.8 °F 100% 30.02 in 1.8 mi East 4.6 mph - N/A   Overcast
1:35 AM 51.8 °F 51.8 °F 100% 30.02 in 1.5 mi East 3.5 mph - N/A   Overcast
1:55 AM 51.8 °F 51.8 °F 100% 30.02 in 1.2 mi East 5.8 mph - N/A   Overcast
2:15 AM 51.8 °F 51.8 °F 100% 30.01 in 1.5 mi East 4.6 mph - N/A   Overcast
2:35 AM 51.8 °F 51.8 °F 100% 30.00 in 1.5 mi East 4.6 mph - N/A   Overcast
3:15 AM 51.8 °F 51.8 °F 100% 29.99 in 1.5 mi ESE 3.5 mph - N/A   Overcast
3:35 AM 53.6 °F 53.6 °F 100% 29.99 in 2.0 mi SSE 6.9 mph - N/A   Overcast
3:55 AM 53.6 °F 53.6 °F 100% 29.99 in 2.5 mi SSE 4.6 mph - N/A   Overcast
4:15 AM 53.6 °F 53.6 °F 100% 30.00 in 2.0 mi SE 3.5 mph - N/A   Overcast
4:35 AM 53.6 °F 53.6 °F 100% 30.00 in 1.8 mi ESE 3.5 mph - N/A   Overcast
4:55 AM 53.6 °F 53.6 °F 100% 30.00 in 1.2 mi East 4.6 mph - N/A   Overcast
5:15 AM 51.8 °F 51.8 °F 100% 30.01 in 1.2 mi East 3.5 mph - N/A   Overcast
5:35 AM 51.8 °F 51.8 °F 100% 30.00 in 1.2 mi East 3.5 mph - N/A   Overcast
5:55 AM 51.8 °F 51.8 °F 100% 30.00 in 1.0 mi East 4.6 mph - N/A   Overcast
6:15 AM 51.8 °F 51.8 °F 100% 30.00 in 1.2 mi East 4.6 mph - N/A   Overcast
6:35 AM 51.8 °F 51.8 °F 100% 29.99 in 1.5 mi East 4.6 mph - N/A   Overcast
6:55 AM 51.8 °F 51.8 °F 100% 30.00 in 1.8 mi East 5.8 mph - N/A   Overcast
7:15 AM 51.8 °F 51.8 °F 100% 29.99 in 1.8 mi East 5.8 mph - N/A   Overcast
7:35 AM 51.8 °F 51.8 °F 100% 30.00 in 1.8 mi East 5.8 mph - N/A   Overcast
7:55 AM 51.8 °F 51.8 °F 100% 30.00 in 1.0 mi East 4.6 mph - N/A   Overcast
8:15 AM 51.8 °F 51.8 °F 100% 30.00 in 1.0 mi East 6.9 mph - N/A   Overcast
8:35 AM 51.8 °F 51.8 °F 100% 30.00 in 0.8 mi East 4.6 mph - N/A   Overcast
8:55 AM 51.8 °F 51.8 °F 100% 30.00 in 1.0 mi ESE 4.6 mph - N/A   Overcast
9:15 AM 51.8 °F 51.8 °F 100% 30.00 in 0.8 mi East 5.8 mph - N/A   Overcast
9:35 AM 53.6 °F 53.6 °F 100% 30.00 in 1.0 mi East 4.6 mph - N/A   Overcast
9:55 AM 53.6 °F 53.6 °F 100% 30.00 in 1.2 mi ESE 6.9 mph - N/A   Overcast
10:15 AM 53.6 °F 53.6 °F 100% 30.01 in 2.5 mi SE 5.8 mph - N/A   Overcast
10:35 AM 55.4 °F 55.4 °F 100% 30.01 in 2.5 mi SE 8.1 mph - N/A   Overcast
10:55 AM 55.4 °F 55.4 °F 100% 30.00 in 2.0 mi SE 6.9 mph - N/A   Overcast
11:15 AM 55.4 °F 55.4 °F 100% 30.00 in 1.5 mi SSE 8.1 mph - N/A   Overcast
11:35 AM 55.4 °F 55.4 °F 100% 29.99 in 1.5 mi SSE 8.1 mph - N/A   Overcast
11:55 AM 55.4 °F 55.4 °F 100% 29.97 in 1.8 mi SE 9.2 mph - N/A   Overcast
12:15 PM 55.4 °F 55.4 °F 100% 29.96 in 3.0 mi SE 8.1 mph - N/A   Overcast
12:35 PM 55.4 °F 55.4 °F 100% 29.95 in 2.5 mi SSE 8.1 mph - N/A   Overcast
12:55 PM 57.2 °F 57.2 °F 100% 29.94 in 3.0 mi SSE 5.8 mph - N/A   Overcast
1:15 PM 57.2 °F 57.2 °F 100% 29.93 in 5.0 mi SSE 8.1 mph - N/A   Overcast
1:35 PM 59.0 °F 59.0 °F 100% 29.92 in 7.0 mi SSE 6.9 mph - N/A   Overcast
1:55 PM 59.0 °F 59.0 °F 100% 29.90 in 10.0 mi SSE 8.1 mph - N/A   Overcast
2:15 PM 60.8 °F 60.8 °F 100% 29.89 in 10.0 mi SSE 10.4 mph - N/A   Overcast
2:35 PM 60.8 °F 60.8 °F 100% 29.88 in 10.0 mi SE 9.2 mph - N/A   Mostly Cloudy
2:55 PM 64.4 °F 64.4 °F 100% 29.86 in 10.0 mi SE 10.4 mph - N/A   Scattered Clouds
3:15 PM 66.2 °F 62.6 °F 88% 29.85 in 10.0 mi SE 12.7 mph - N/A   Scattered Clouds
3:35 PM 66.2 °F 60.8 °F 83% 29.84 in 10.0 mi SE 10.4 mph - N/A   Clear
3:55 PM 68.0 °F 60.8 °F 78% 29.84 in 10.0 mi SSE 9.2 mph - N/A   Clear
4:15 PM 68.0 °F 59.0 °F 73% 29.83 in 10.0 mi SE 10.4 mph - N/A   Scattered Clouds
4:35 PM 69.8 °F 59.0 °F 68% 29.82 in 10.0 mi SE 10.4 mph - N/A   Mostly Cloudy
4:55 PM 71.6 °F 55.4 °F 57% 29.82 in 10.0 mi SSE 13.8 mph - N/A   Overcast
5:15 PM 69.8 °F 55.4 °F 60% 29.82 in 10.0 mi ESE 16.1 mph 19.6 mph N/A   Scattered Clouds
5:35 PM 62.6 °F 60.8 °F 94% 29.83 in 10.0 mi ESE 15.0 mph 18.4 mph N/A   Mostly Cloudy
5:55 PM 60.8 °F 59.0 °F 94% 29.84 in 10.0 mi ESE 16.1 mph 21.9 mph N/A   Overcast
6:15 PM 59.0 °F 59.0 °F 100% 29.84 in 10.0 mi ESE 19.6 mph 24.2 mph N/A   Overcast
6:35 PM 59.0 °F 59.0 °F 100% 29.84 in 10.0 mi ESE 15.0 mph - N/A   Overcast
6:55 PM 59.0 °F 59.0 °F 100% 29.84 in 10.0 mi SE 12.7 mph 19.6 mph N/A   Overcast
7:15 PM 59.0 °F 57.2 °F 94% 29.85 in 10.0 mi ESE 15.0 mph 18.4 mph N/A   Overcast
7:35 PM 59.0 °F 57.2 °F 94% 29.86 in 10.0 mi SE 15.0 mph 20.7 mph N/A   Overcast
7:55 PM 59.0 °F 57.2 °F 94% 29.86 in 10.0 mi SE 16.1 mph 20.7 mph N/A   Overcast
8:15 PM 59.0 °F 57.2 °F 94% 29.87 in 10.0 mi SE 15.0 mph 21.9 mph N/A   Overcast
8:35 PM 59.0 °F 57.2 °F 94% 29.87 in 10.0 mi SE 15.0 mph 26.5 mph N/A   Overcast
8:55 PM 59.0 °F 57.2 °F 94% 29.87 in 10.0 mi SE 18.4 mph 25.3 mph N/A   Overcast
9:15 PM 59.0 °F 57.2 °F 94% 29.87 in 10.0 mi SE 12.7 mph 20.7 mph N/A   Overcast
9:35 PM 59.0 °F 59.0 °F 100% 29.87 in 10.0 mi SE 16.1 mph 23.0 mph N/A   Overcast
9:55 PM 59.0 °F 57.2 °F 94% 29.87 in 10.0 mi SSE 16.1 mph 20.7 mph N/A   Overcast
10:15 PM 59.0 °F 57.2 °F 94% 29.88 in 10.0 mi SE 16.1 mph 21.9 mph N/A   Overcast
10:35 PM 59.0 °F 57.2 °F 94% 29.88 in 10.0 mi SSE 13.8 mph - N/A   Overcast
10:55 PM 59.0 °F 57.2 °F 94% 29.88 in 10.0 mi SSE 13.8 mph - N/A   Overcast
11:15 PM 57.2 °F 57.2 °F 100% 29.87 in 10.0 mi SE 12.7 mph - N/A   Mostly Cloudy
11:35 PM 59.0 °F 57.2 °F 94% 29.87 in 10.0 mi SSE 13.8 mph - N/A   Overcast